{"data":{"norad_id":67936,"epoch":"2026-05-25T05:22:24.043296Z","epoch_age_seconds":49490,"freshness":"FRESH","line1":"1 67936U 26037E   26145.22388939  .00014760  00000+0  54470-3 0  9991","line2":"2 67936  43.0015 118.6818 0000756 275.6892  84.3874 15.27588078 15041","mean_motion":15.27588078,"eccentricity":7.56e-5,"inclination_deg":43.0015,"raan_deg":118.6818,"arg_perigee_deg":275.6892,"mean_anomaly_deg":84.3874,"bstar":0.0005447,"rev_number":1504,"period_min":94.266250224035,"perigee_km":482.50620386798,"apogee_km":483.54361154842,"semimajor_km":6861.1619077082,"source":"CELESTRAK","updated_at":"2026-05-25T13:38:21.766846Z"}}